Notices

What's New in latest Release from April 7th, 2021:

- Updated Glossary, including Speed of Maximum Gust, and Total Hourly Precipitation

- Updated national and regional climate services offices contacts and prices information

- Addition of station inventory lists for 1981-2010, 1971-2000, and 1961-1990 Normals.

If you haven't already, please take our survey and provide feedback about our website: https://eccc.sondage-survey.ca/f/LanguageSelection.aspx?s=442ca660-fcf1-47c0-95a9-59707d6fd709

Hourly Data Report for August 30, 2016

TORONTO CITY
ONTARIO

43°40'00.000" N
79°24'00.000" W
112.50 m
6158355
71508
XTO

Download Data

Hourly Data (August 2016)
Hourly Data Report for August 30, 2016
TIME
LST
Temp Definition
°C
Dew Point Definition
°C
Rel Hum Definition
%
Precip. Amount Definition
mm

Wind Dir Definition
10's deg

Wind Spd Definition
km/h
Visibility Definition
km
Stn Press Definition
kPa
Hmdx Definition


Wind Chill Definition


Weather Definition


00:00 20.6 15.0 70 0.0 LegendMM LegendMM   100.86 25   LegendNANA
01:00 20.4 14.6 69 0.0 LegendMM LegendMM   100.83     LegendNANA
02:00 19.8 14.7 73 0.0 LegendMM LegendMM   100.81     LegendNANA
03:00 19.3 14.4 73 0.0 LegendMM LegendMM   100.80     LegendNANA
04:00 18.5 14.8 79 0.0 LegendMM LegendMM   100.80     LegendNANA
05:00 18.2 14.6 79 0.0 LegendMM LegendMM   100.75     LegendNANA
06:00 18.1 14.8 81 0.0 LegendMM LegendMM   100.77     LegendNANA
07:00 20.0 14.9 73 0.0 LegendMM LegendMM   100.77     LegendNANA
08:00 21.8 16.3 71 0.0 LegendMM LegendMM   100.75 27   LegendNANA
09:00 23.9 15.1 58 0.0 LegendMM LegendMM   100.72 28   LegendNANA
10:00 25.0 15.9 57 0.0 LegendMM LegendMM   100.70 30   LegendNANA
11:00 26.1 16.2 54 0.0 LegendMM LegendMM   100.65 31   LegendNANA
12:00 27.1 16.4 52 0.0 LegendMM LegendMM   100.60 32   LegendNANA
13:00 27.6 15.4 47 0.0 LegendMM LegendMM   100.52 32   LegendNANA
14:00 28.2 16.5 49 0.0 LegendMM LegendMM   100.44 33   LegendNANA
15:00 28.2 16.1 48 0.0 LegendMM LegendMM   100.38 33   LegendNANA
16:00 28.2 16.0 47 0.0 LegendMM LegendMM   100.32 33   LegendNANA
17:00 28.1 17.6 53 0.0 LegendMM LegendMM   100.30 34   LegendNANA
18:00 27.6 17.4 54 0.0 LegendMM LegendMM   100.28 33   LegendNANA
19:00 26.6 17.7 58 0.0 LegendMM LegendMM   100.25 32   LegendNANA
20:00 26.5 17.6 58 0.0 LegendMM LegendMM   100.24 32   LegendNANA
21:00 26.2 18.1 61 0.0 LegendMM LegendMM   100.25 32   LegendNANA
22:00 25.2 18.8 67 0.0 LegendMM LegendMM   100.22 32   LegendNANA
23:00 25.0 18.9 69 0.0 LegendMM LegendMM   100.18 32   LegendNANA

Notes on Data Quality.

Legend

  • E = Estimated
  • M = Missing
  • NA = Not Available*
  • [empty] = Indicates an unobserved value
Date modified: